Location: Unspecified
(0.0000°N, 0.0000°E)
Time: 00:21:48
(UTC+00:00)

Envisat - Pass Details

Date: 24 June 2022
Orbit: 764 x 765 km, 98.2° (Epoch: 28 June)

Event Time Altitude Azimuth Distance (km) Brightness Sun altitude
Rises 05:19:18 0° 334° (NNW) 3,213 6.2 -9.9°
Reaches altitude 10° 05:23:17 10° 302° (WNW) 2,292 5.1 -9.0°
Maximum altitude 05:24:56 12° 283° (WNW) 2,185 4.9 -8.6°
Drops below altitude 10° 05:26:37 10° 263° (W) 2,296 4.9 -8.2°
Enters shadow 05:27:07 - 258° (WSW) 2,370 4.9 -8.1°
